TimeEST,TemperatureF,Dew PointF,Humidity,Sea Level PressureIn,VisibilityMPH,Wind Direction,Wind SpeedMPH,Gust SpeedMPH,PrecipitationIn,Events,Conditions,WindDirDegrees,DateUTC
12:53 AM,69.1,68.0,96,30.10,10.0,ENE,10.4,-,N/A,,Overcast,70,2013-01-08 05:53:00
1:53 AM,69.1,68.0,96,30.10,10.0,ENE,12.7,-,N/A,,Overcast,70,2013-01-08 06:53:00
2:53 AM,69.1,68.0,96,30.09,9.0,NE,10.4,-,N/A,,Overcast,50,2013-01-08 07:53:00
3:53 AM,69.1,68.0,96,30.09,7.0,ENE,8.1,-,N/A,,Overcast,60,2013-01-08 08:53:00
4:53 AM,68.0,68.0,100,30.08,7.0,ENE,9.2,-,N/A,,Overcast,60,2013-01-08 09:53:00
5:53 AM,68.0,68.0,100,30.11,7.0,ENE,8.1,-,N/A,,Overcast,60,2013-01-08 10:53:00
6:53 AM,68.0,68.0,100,30.12,5.0,NE,5.8,-,N/A,,Overcast,50,2013-01-08 11:53:00
7:53 AM,69.1,69.1,100,30.15,5.0,ENE,9.2,-,N/A,,Overcast,60,2013-01-08 12:53:00
8:53 AM,71.1,69.1,93,30.18,6.0,ENE,6.9,-,N/A,,Overcast,60,2013-01-08 13:53:00
9:28 AM,73.4,69.8,88,30.19,8.0,ENE,4.6,-,N/A,,Scattered Clouds,60,2013-01-08 14:28:00
10:53 AM,80.1,70.0,71,30.17,10.0,ESE,9.2,-,N/A,,Scattered Clouds,120,2013-01-08 15:53:00
11:53 AM,81.0,68.0,65,30.16,10.0,SE,9.2,-,N/A,,Scattered Clouds,140,2013-01-08 16:53:00
12:53 PM,81.0,66.9,62,30.13,10.0,Variable,3.5,-,N/A,,Clear,0,2013-01-08 17:53:00
1:53 PM,84.0,66.9,56,30.10,10.0,ENE,6.9,-,N/A,,Scattered Clouds,70,2013-01-08 18:53:00
2:53 PM,81.0,68.0,65,30.10,10.0,West,8.1,-,N/A,,Mostly Cloudy,280,2013-01-08 19:53:00
3:00 PM,80.6,69.8,70,30.10,10.0,West,8.1,-,N/A,,Mostly Cloudy,280,2013-01-08 20:00:00
3:07 PM,78.8,69.8,74,30.10,10.0,West,6.9,-,N/A,,Mostly Cloudy,270,2013-01-08 20:07:00
3:53 PM,81.0,69.1,67,30.10,10.0,West,6.9,-,N/A,,Mostly Cloudy,280,2013-01-08 20:53:00
4:00 PM,80.6,69.8,70,30.10,10.0,WNW,6.9,-,N/A,,Mostly Cloudy,290,2013-01-08 21:00:00
4:53 PM,81.0,66.9,62,30.11,10.0,ESE,8.1,-,N/A,,Overcast,110,2013-01-08 21:53:00
5:53 PM,79.0,68.0,69,30.12,10.0,ESE,5.8,-,N/A,,Mostly Cloudy,110,2013-01-08 22:53:00
6:53 PM,78.1,68.0,71,30.12,10.0,ESE,6.9,-,N/A,,Mostly Cloudy,110,2013-01-08 23:53:00
7:53 PM,77.0,69.1,76,30.13,10.0,East,10.4,-,N/A,,Mostly Cloudy,100,2013-01-09 00:53:00
8:53 PM,75.0,70.0,84,30.14,10.0,East,6.9,-,N/A,,Scattered Clouds,100,2013-01-09 01:53:00
9:53 PM,73.9,70.0,87,30.15,10.0,East,8.1,-,N/A,,Clear,90,2013-01-09 02:53:00
10:53 PM,73.0,70.0,90,30.15,9.0,East,9.2,-,N/A,,Clear,90,2013-01-09 03:53:00